sat.trackr.live / text

‹ back to catalog

STARLINK-36098

NORAD 66816 · 2025-278AB

PAYLOAD ACTIVE UNKNOWN

§ Identity

Operator
Country
US
Launch date
2025-12-01
Launch site
AFETR
Launch vehicle
Mass (kg)
RCS (m²)

Purposes: comms

External: N2YO · Heavens-Above · Gunter

§ Orbital elements

Epoch: 2026-09-19T21:16:42.091392Z

Period
94.27 min
Inclination
43.0002°
Eccentricity
0.0001205
Mean motion
15.27585757 rev/d
Perigee alt
482.2 km
Apogee alt
483.9 km
Semi-major
6,861.2 km
B*
3.8376e-4
RAAN
97.2350°
Arg perigee
288.8404°
Mean anomaly
71.2317°
Rev number
4,491

§ Raw data

STARLINK-360981 66816U 25278AB  26262.88659828  .00010315  00000+0  38376-3 0  99922 66816  43.0002  97.2350 0001205 288.8404  71.2317 15.27585757 44917

JSON: /api/v1/satellites/66816 · /tle

For live sub-satellite position, see the globe view (requires WebGL).

§ Visibility from observer

Set your observer location to see the next 7 days of passes ≥ 10°. The values pass through the URL so the page stays shareable.

No JS? Fill the form by hand. The geolocation button needs JavaScript.